Skip Page Navigation
NASA JPL Caltech
NASA Logo - Jet Propulsion Laboratory + View the NASA Portal
+ Center for Near-Earth Object Studies
JPL Home Earth Solar System Stars & Galaxies Technology
JPL Solar System Dynamics
BODIES ORBITS EPHEMERIDES TOOLS PHYSICAL DATA DISCOVERY FAQ SITE MAP
IMPORTANT: The SSD Announcement email list is now available. Major changes are coming in the near future, including possible hostname and/or URL changes. To be notified of such changes, subscribe to this email list.

Please visit this page for more details.


JPL Small-Body Database Browser
Search: [ help ]  
413187 (2002 RO282)
Classification: Main-belt Asteroid          SPK-ID: 2413187
Ephemeris | Orbit Diagram | Orbital Elements | Mission Design | Physical Parameters | Discovery Circumstances ]

[ show orbit diagram ]
Orbital Elements at Epoch 2458600.5 (2019-Apr-27.0) TDB
Reference: JPL 9 (heliocentric ecliptic J2000)
 Element Value Uncertainty (1-sigma)   Units 
e .2265960389397685 4.977e-07  
a 2.455912084591509 6.7396e-08 au
q 1.899412134238764 1.272e-06 au
i 8.696160315719778 1.8232e-05 deg
node 240.5196408763374 4.8048e-05 deg
peri 45.07981291867203 0.0001406 deg
M 156.5554196515697 0.0001136 deg
tp 2457989.159374566738
(2017-Aug-23.65937457)
0.00041994 TDB
period 1405.780940997067
3.85
5.7867e-05
1.584e-07
d
yr
n .2560854180770623 1.0541e-08 deg/d
Q 3.012412034944255 8.2667e-08 au
  Orbit Determination Parameters
   # obs. used (total)      98  
   data-arc span      5952 days (16.30 yr)  
   first obs. used      2002-08-27  
   last obs. used      2018-12-13  
   planetary ephem.      DE431  
   SB-pert. ephem.      SB431-N16  
   condition code      0  
   norm. resid. RMS      .66217  
   source      ORB  
   producer      Otto Matic  
   solution date      2019-Jul-14 13:05:10  

Additional Information
 Earth MOID = .893965 au 
 Jupiter MOID = 2.1678 au 
 T_jup = 3.442 
[ show covariance matrix ]

Ephemeris | Orbit Diagram | Orbital Elements | Mission Design | Physical Parameters | Discovery Circumstances ]

Physical Parameter Table
Parameter Symbol Value Units Sigma Reference Notes
absolute magnitude H 17.4   n/a MPO419032  
diameter diameter 1.833 km 0.239 urn:nasa:pds:neowise_diameters_albedos::2.0[mainbelt] (http://adsabs.harvard.edu/abs/2011ApJ...741...68M)  
geometric albedo albedo 0.083   0.006 urn:nasa:pds:neowise_diameters_albedos::2.0[mainbelt] (http://adsabs.harvard.edu/abs/2011ApJ...741...68M)  

413187 (2002 RO282)          Discovered 2002-Sep-03 by NEAT at Palomar
Reference: Last Updated: 2014-11-10
Ephemeris | Orbit Diagram | Orbital Elements | Mission Design | Physical Parameters | Discovery Circumstances ]
ABOUT SSD CREDITS/AWARDS PRIVACY/COPYRIGHT GLOSSARY LINKS
FirstGov 2019-Dec-12 08:33 UT
(server date/time)  
NASA Home Page
Site Manager:   Ryan S. Park
Webmaster  Alan B. Chamberlin